User: anonymous   Login
Location: Unspecified
(0.0000°N, 0.0000°E)
Time: 19:52:39
(UTC+01:00)
Language:

Atlas Centaur 2 - Orbit

View from above orbital plane
View from above orbital plane
View from above satellite
View from above satellite

Ground track
Ground track

The orbit data is extracted from the following two-line orbital elements,

1 00694U 63047A   14325.20476220  .00001848  00000-0  23291-3 0  6445
2 00694 030.3596 285.5729 0596063 173.4779 310.5691 14.00095501550901
Epoch (UTC): 21 November 2014 04:54:51
Eccentricity: 0.0596063
inclination: 30.3596°
perigee height: 460 km
apogee height: 1327 km
right ascension of ascending node: 285.5729°
argument of perigee: 173.4779°
revolutions per day: 14.00095501
mean anomaly at epoch: 310.5691°
orbit number at epoch: 55090

The dashed part of the orbit path shows where the satellite is in the earth's shadow,  

DLR